Time,TemperatureF,DewpointF,PressureIn,WindDirection,WindDirectionDegrees,WindSpeedMPH,WindSpeedGustMPH,Humidity,HourlyPrecipIn,Conditions,Clouds,dailyrainin,SoftwareType,DateUTC
2013-05-26 00:02:00,77.0,77.0,30.18,ENE,59,5.0,10.0,100,0.00,,,0.00,,2013-05-26 04:02:00,
2013-05-26 00:12:00,76.0,76.0,30.18,NNE,15,2.0,7.0,100,0.00,,,0.00,,2013-05-26 04:12:00,
2013-05-26 00:23:00,76.0,76.0,30.18,NNE,15,2.0,7.0,100,0.00,,,0.00,,2013-05-26 04:23:00,
2013-05-26 00:33:00,76.0,76.0,30.18,ENE,74,5.0,11.0,100,0.00,,,0.00,,2013-05-26 04:33:00,
2013-05-26 00:42:00,76.0,76.0,30.18,ENE,74,5.0,11.0,100,0.00,,,0.00,,2013-05-26 04:42:00,
2013-05-26 00:52:00,75.0,75.0,30.19,North,0,1.0,13.0,100,0.00,,,0.00,,2013-05-26 04:52:00,
2013-05-26 01:02:00,75.0,75.0,30.20,NNE,26,1.0,5.0,100,0.00,,,0.00,,2013-05-26 05:02:00,
2013-05-26 01:12:00,75.0,75.0,30.20,NNE,26,1.0,5.0,100,0.00,,,0.00,,2013-05-26 05:12:00,
2013-05-26 01:22:00,74.0,74.0,30.20,ESE,111,4.0,5.0,100,0.00,,,0.00,,2013-05-26 05:22:00,
2013-05-26 01:32:00,74.0,74.0,30.19,ENE,64,3.0,4.0,100,0.00,,,0.00,,2013-05-26 05:32:00,
2013-05-26 01:42:00,74.0,74.0,30.19,ENE,64,3.0,4.0,100,0.00,,,0.00,,2013-05-26 05:42:00,
2013-05-26 01:52:00,74.0,74.0,30.19,East,85,2.0,3.0,100,0.00,,,0.00,,2013-05-26 05:52:00,
2013-05-26 02:01:00,74.0,74.0,30.18,East,89,0.0,4.0,100,0.00,,,0.00,,2013-05-26 06:01:00,
2013-05-26 02:12:00,74.0,74.0,30.18,East,89,0.0,4.0,100,0.00,,,0.00,,2013-05-26 06:12:00,
2013-05-26 02:22:00,73.0,73.0,30.18,NNE,25,1.0,3.0,100,0.00,,,0.00,,2013-05-26 06:22:00,
2013-05-26 02:32:00,73.0,73.0,30.18,NE,36,3.0,4.0,100,0.00,,,0.00,,2013-05-26 06:32:00,
2013-05-26 02:42:00,73.0,73.0,30.18,NE,36,3.0,4.0,100,0.00,,,0.00,,2013-05-26 06:42:00,
2013-05-26 02:52:00,73.0,73.0,30.18,NE,54,2.0,4.0,100,0.00,,,0.00,,2013-05-26 06:52:00,
2013-05-26 03:01:00,73.0,73.0,30.17,ENE,62,1.0,3.0,100,0.00,,,0.00,,2013-05-26 07:01:00,
2013-05-26 03:11:00,73.0,73.0,30.17,ENE,62,1.0,3.0,100,0.00,,,0.00,,2013-05-26 07:11:00,
2013-05-26 03:22:00,72.0,72.0,30.17,North,10,4.0,6.0,100,0.00,,,0.00,,2013-05-26 07:22:00,
2013-05-26 03:32:00,72.0,72.0,30.17,NNE,27,1.0,5.0,100,0.00,,,0.00,,2013-05-26 07:32:00,
2013-05-26 03:42:00,72.0,72.0,30.17,NNE,27,1.0,5.0,100,0.00,,,0.00,,2013-05-26 07:42:00,
2013-05-26 03:52:00,72.0,72.0,30.17,North,359,0.0,3.0,100,0.00,,,0.00,,2013-05-26 07:52:00,
2013-05-26 04:01:00,72.0,72.0,30.17,NE,48,1.0,2.0,100,0.00,,,0.00,,2013-05-26 08:01:00,
2013-05-26 04:12:00,72.0,72.0,30.17,NE,48,1.0,2.0,100,0.00,,,0.00,,2013-05-26 08:12:00,
2013-05-26 04:21:00,72.0,72.0,30.17,North,8,4.0,4.0,100,0.00,,,0.00,,2013-05-26 08:21:00,
2013-05-26 04:32:00,71.0,71.0,30.16,NE,47,1.0,5.0,100,0.00,,,0.00,,2013-05-26 08:32:00,
2013-05-26 04:42:00,71.0,71.0,30.16,NE,47,1.0,5.0,100,0.00,,,0.00,,2013-05-26 08:42:00,
2013-05-26 04:53:00,71.0,71.0,30.16,NE,42,3.0,6.0,100,0.00,,,0.00,,2013-05-26 08:53:00,
2013-05-26 05:01:00,71.0,71.0,30.16,NE,50,1.0,1.0,100,0.00,,,0.00,,2013-05-26 09:01:00,
2013-05-26 05:11:00,71.0,71.0,30.17,NE,45,0.0,0.0,100,0.00,,,0.00,,2013-05-26 09:11:00,
2013-05-26 05:21:00,71.0,71.0,30.17,NE,45,0.0,0.0,100,0.00,,,0.00,,2013-05-26 09:21:00,
2013-05-26 05:33:00,71.0,71.0,30.17,NE,45,0.0,2.0,100,0.00,,,0.00,,2013-05-26 09:33:00,
2013-05-26 05:42:00,71.0,71.0,30.17,NE,45,0.0,2.0,100,0.00,,,0.00,,2013-05-26 09:42:00,
2013-05-26 05:53:00,70.0,70.0,30.16,NE,44,1.0,2.0,100,0.00,,,0.00,,2013-05-26 09:53:00,
2013-05-26 06:02:00,70.0,70.0,30.17,NE,43,3.0,4.0,100,0.00,,,0.00,,2013-05-26 10:02:00,
2013-05-26 06:12:00,70.0,70.0,30.17,NE,43,3.0,4.0,100,0.00,,,0.00,,2013-05-26 10:12:00,
2013-05-26 06:23:00,70.0,70.0,30.17,NE,47,0.0,0.0,100,0.00,,,0.00,,2013-05-26 10:23:00,
2013-05-26 06:33:00,69.0,69.0,30.17,NNE,32,1.0,3.0,100,0.00,,,0.00,,2013-05-26 10:33:00,
2013-05-26 06:42:00,69.0,69.0,30.18,NNE,33,0.0,2.0,100,0.00,,,0.00,,2013-05-26 10:42:00,
2013-05-26 06:52:00,69.0,69.0,30.18,NNE,33,0.0,2.0,100,0.00,,,0.00,,2013-05-26 10:52:00,
2013-05-26 07:03:00,69.0,69.0,30.18,NNE,31,3.0,4.0,100,0.00,,,0.00,,2013-05-26 11:03:00,
2013-05-26 07:11:00,69.0,69.0,30.18,NNE,31,3.0,4.0,100,0.00,,,0.00,,2013-05-26 11:11:00,
2013-05-26 07:22:00,70.0,70.0,30.18,NE,35,1.0,3.0,100,0.00,,,0.00,,2013-05-26 11:22:00,
2013-05-26 07:32:00,70.0,70.0,30.19,NE,43,1.0,3.0,100,0.00,,,0.00,,2013-05-26 11:32:00,
2013-05-26 07:42:00,70.0,70.0,30.19,NE,43,1.0,3.0,100,0.00,,,0.00,,2013-05-26 11:42:00,
2013-05-26 07:52:00,71.0,71.0,30.19,ENE,70,2.0,2.0,100,0.00,,,0.00,,2013-05-26 11:52:00,
2013-05-26 08:02:00,72.0,72.0,30.19,ENE,62,3.0,8.0,100,0.00,,,0.00,,2013-05-26 12:02:00,
2013-05-26 08:12:00,72.0,72.0,30.19,ENE,62,3.0,8.0,100,0.00,,,0.00,,2013-05-26 12:12:00,
2013-05-26 08:21:00,72.0,72.0,30.20,ENE,72,2.0,7.0,100,0.00,,,0.00,,2013-05-26 12:21:00,
2013-05-26 08:32:00,72.0,72.0,30.20,ENE,62,4.0,8.0,100,0.00,,,0.00,,2013-05-26 12:32:00,
2013-05-26 08:42:00,72.0,72.0,30.20,ENE,62,4.0,8.0,100,0.00,,,0.00,,2013-05-26 12:42:00,
2013-05-26 08:52:00,74.0,74.0,30.20,NE,35,9.0,11.0,100,0.00,,,0.00,,2013-05-26 12:52:00,
2013-05-26 09:02:00,74.0,74.0,30.21,NNE,17,2.0,7.0,100,0.00,,,0.00,,2013-05-26 13:02:00,
2013-05-26 09:11:00,74.0,74.0,30.21,NNE,17,2.0,7.0,100,0.00,,,0.00,,2013-05-26 13:11:00,
2013-05-26 09:21:00,75.0,75.0,30.22,NNE,30,9.0,9.0,100,0.00,,,0.00,,2013-05-26 13:21:00,
2013-05-26 09:32:00,77.0,77.0,30.23,NE,48,3.0,6.0,100,0.00,,,0.00,,2013-05-26 13:32:00,
2013-05-26 09:42:00,77.0,77.0,30.22,NNE,25,4.0,7.0,100,0.00,,,0.00,,2013-05-26 13:42:00,
2013-05-26 09:52:00,77.0,77.0,30.22,NNE,25,4.0,7.0,100,0.00,,,0.00,,2013-05-26 13:52:00,
2013-05-26 10:02:00,78.0,78.0,30.23,North,11,4.0,6.0,100,0.00,,,0.00,,2013-05-26 14:02:00,
2013-05-26 10:11:00,78.0,78.0,30.23,North,9,3.0,4.0,100,0.00,,,0.00,,2013-05-26 14:11:00,
2013-05-26 10:21:00,78.0,78.0,30.23,North,9,3.0,4.0,100,0.00,,,0.00,,2013-05-26 14:21:00,
2013-05-26 10:32:00,79.0,79.0,30.23,NNE,19,1.0,3.0,100,0.00,,,0.00,,2013-05-26 14:32:00,
2013-05-26 10:42:00,81.0,81.0,30.23,North,1,5.0,11.0,100,0.00,,,0.00,,2013-05-26 14:42:00,
2013-05-26 10:52:00,81.0,81.0,30.23,North,1,5.0,11.0,100,0.00,,,0.00,,2013-05-26 14:52:00,
2013-05-26 11:01:00,82.0,82.0,30.23,SE,124,2.0,6.0,100,0.00,,,0.00,,2013-05-26 15:01:00,
2013-05-26 11:12:00,82.0,82.0,30.23,SE,124,2.0,6.0,100,0.00,,,0.00,,2013-05-26 15:12:00,
2013-05-26 11:22:00,83.0,83.0,30.23,NE,49,4.0,7.0,100,0.00,,,0.00,,2013-05-26 15:22:00,
2013-05-26 11:33:00,83.0,83.0,30.22,ENE,59,1.0,3.0,100,0.00,,,0.00,,2013-05-26 15:33:00,
2013-05-26 11:43:00,85.0,85.0,30.22,North,0,5.0,9.0,100,0.00,,,0.00,,2013-05-26 15:43:00,
2013-05-26 11:53:00,85.0,85.0,30.22,North,0,5.0,9.0,100,0.00,,,0.00,,2013-05-26 15:53:00,
2013-05-26 12:03:00,85.0,85.0,30.22,North,0,3.0,5.0,100,0.00,,,0.00,,2013-05-26 16:03:00,
2013-05-26 12:12:00,87.0,87.0,30.22,North,0,11.0,11.0,100,0.00,,,0.00,,2013-05-26 16:12:00,
2013-05-26 12:23:00,87.0,87.0,30.22,North,0,11.0,11.0,100,0.00,,,0.00,,2013-05-26 16:23:00,
2013-05-26 12:33:00,88.0,88.0,30.22,NNE,14,4.0,8.0,100,0.00,,,0.00,,2013-05-26 16:33:00,
2013-05-26 12:42:00,88.0,88.0,30.21,North,359,6.0,9.0,100,0.00,,,0.00,,2013-05-26 16:42:00,
2013-05-26 12:53:00,88.0,88.0,30.21,North,359,6.0,9.0,100,0.00,,,0.00,,2013-05-26 16:53:00,
2013-05-26 13:02:00,90.0,90.0,30.22,ENE,62,6.0,8.0,100,0.00,,,0.00,,2013-05-26 17:02:00,
2013-05-26 13:42:00,90.0,90.0,30.21,NNE,23,1.0,4.0,100,0.00,,,0.00,,2013-05-26 17:42:00,
2013-05-26 13:52:00,90.0,90.0,30.21,NNE,23,1.0,4.0,100,0.00,,,0.00,,2013-05-26 17:52:00,
2013-05-26 15:01:00,90.0,90.0,30.18,North,0,4.0,11.0,100,0.00,,,0.00,,2013-05-26 19:01:00,
2013-05-26 15:11:00,90.0,90.0,30.18,North,0,4.0,11.0,100,0.00,,,0.00,,2013-05-26 19:11:00,
2013-05-26 17:33:00,90.0,90.0,30.14,North,0,6.0,7.0,100,0.00,,,0.00,,2013-05-26 21:33:00,
2013-05-26 18:03:00,90.0,90.0,30.13,NNE,27,3.0,4.0,100,0.00,,,0.00,,2013-05-26 22:03:00,
2013-05-26 18:12:00,88.0,88.0,30.12,NNE,22,4.0,4.0,100,0.00,,,0.00,,2013-05-26 22:12:00,
2013-05-26 18:23:00,88.0,88.0,30.12,NNE,22,4.0,4.0,100,0.00,,,0.00,,2013-05-26 22:23:00,
2013-05-26 18:33:00,86.0,86.0,30.13,NE,54,1.0,3.0,100,0.00,,,0.00,,2013-05-26 22:33:00,
2013-05-26 18:42:00,86.0,86.0,30.12,NE,34,4.0,6.0,100,0.00,,,0.00,,2013-05-26 22:42:00,
2013-05-26 18:53:00,86.0,86.0,30.12,NE,34,4.0,6.0,100,0.00,,,0.00,,2013-05-26 22:53:00,
2013-05-26 19:02:00,85.0,85.0,30.12,NNE,16,2.0,3.0,100,0.00,,,0.00,,2013-05-26 23:02:00,
2013-05-26 19:12:00,85.0,85.0,30.12,NE,48,1.0,4.0,100,0.00,,,0.00,,2013-05-26 23:12:00,
2013-05-26 19:22:00,85.0,85.0,30.12,NE,48,1.0,4.0,100,0.00,,,0.00,,2013-05-26 23:22:00,
2013-05-26 19:32:00,84.0,84.0,30.12,NE,46,0.0,2.0,100,0.00,,,0.00,,2013-05-26 23:32:00,
2013-05-26 19:43:00,84.0,84.0,30.12,North,0,4.0,4.0,100,0.00,,,0.00,,2013-05-26 23:43:00,
2013-05-26 19:52:00,84.0,84.0,30.12,North,0,4.0,4.0,100,0.00,,,0.00,,2013-05-26 23:52:00,
2013-05-26 20:02:00,83.0,83.0,30.13,NE,44,0.0,2.0,100,0.00,,,0.00,,2013-05-27 00:02:00,
2013-05-26 20:11:00,82.0,82.0,30.13,NE,35,2.0,3.0,100,0.00,,,0.00,,2013-05-27 00:11:00,
2013-05-26 20:22:00,82.0,82.0,30.13,NE,35,2.0,3.0,100,0.00,,,0.00,,2013-05-27 00:22:00,
2013-05-26 20:32:00,81.0,81.0,30.13,NNE,25,1.0,5.0,100,0.00,,,0.00,,2013-05-27 00:32:00,
2013-05-26 20:42:00,81.0,81.0,30.14,NNE,21,0.0,2.0,100,0.00,,,0.00,,2013-05-27 00:42:00,
2013-05-26 20:52:00,81.0,81.0,30.14,NNE,21,0.0,2.0,100,0.00,,,0.00,,2013-05-27 00:52:00,
2013-05-26 21:01:00,80.0,80.0,30.13,ENE,59,2.0,3.0,100,0.00,,,0.00,,2013-05-27 01:01:00,
2013-05-26 21:11:00,80.0,80.0,30.13,ENE,59,2.0,3.0,100,0.00,,,0.00,,2013-05-27 01:11:00,
2013-05-26 21:22:00,79.0,79.0,30.14,WSW,244,0.0,0.0,100,0.00,,,0.00,,2013-05-27 01:22:00,
2013-05-26 21:32:00,79.0,79.0,30.14,WSW,244,1.0,2.0,100,0.00,,,0.00,,2013-05-27 01:32:00,
2013-05-26 21:42:00,78.0,78.0,30.14,WSW,244,0.0,0.0,100,0.00,,,0.00,,2013-05-27 01:42:00,
2013-05-26 21:52:00,78.0,78.0,30.14,WSW,244,0.0,0.0,100,0.00,,,0.00,,2013-05-27 01:52:00,
2013-05-26 22:02:00,77.0,77.0,30.14,WSW,244,0.0,0.0,100,0.00,,,0.00,,2013-05-27 02:02:00,
2013-05-26 22:11:00,77.0,77.0,30.15,WSW,244,0.0,0.0,100,0.00,,,0.00,,2013-05-27 02:11:00,
2013-05-26 22:22:00,77.0,77.0,30.15,WSW,244,0.0,0.0,100,0.00,,,0.00,,2013-05-27 02:22:00,
2013-05-26 22:32:00,77.0,77.0,30.16,NNE,32,1.0,6.0,100,0.00,,,0.00,,2013-05-27 02:32:00,
2013-05-26 22:42:00,78.0,78.0,30.16,NNE,33,0.0,2.0,100,0.00,,,0.00,,2013-05-27 02:42:00,
2013-05-26 22:52:00,78.0,78.0,30.16,NNE,33,0.0,2.0,100,0.00,,,0.00,,2013-05-27 02:52:00,
2013-05-26 23:02:00,77.0,77.0,30.17,NE,56,4.0,4.0,100,0.00,,,0.00,,2013-05-27 03:02:00,
2013-05-26 23:11:00,77.0,77.0,30.17,NE,56,4.0,4.0,100,0.00,,,0.00,,2013-05-27 03:11:00,
2013-05-26 23:21:00,77.0,77.0,30.17,East,83,3.0,7.0,100,0.00,,,0.00,,2013-05-27 03:21:00,
2013-05-26 23:33:00,76.0,76.0,30.18,ENE,63,3.0,7.0,100,0.00,,,0.00,,2013-05-27 03:33:00,
2013-05-26 23:43:00,76.0,76.0,30.18,ENE,62,3.0,6.0,100,0.00,,,0.00,,2013-05-27 03:43:00,
2013-05-26 23:53:00,76.0,76.0,30.18,ENE,62,3.0,6.0,100,0.00,,,0.00,,2013-05-27 03:53:00,